GAF542 EYKA-EDDS

Flight info

Callsign GAF542
Flight time 2h 0m
Altitude 38000
Route KAZLA DCT BOKSU M857 SUWGI N871 MULZA N869 TOMTI DCT LEGAZ DCT OKG N869 GUPIN L173 LBU
Aircraft A400/H-SDE3FGHIRWY/L4T

Departure

Time 2026-05-07 09:54
Airport Kaunas International Airport (EYKA)

Arrival

Time 2026-05-07 11:55
Airport Stuttgart Airport (EDDS)
Time Latitude Longitude Altitude Speed Heading
2026-05-07 09:39 54.96072 24.07453 254 ft 0 kts 266°
2026-05-07 09:50 54.96072 24.07446 254 ft 2 kts 273°
2026-05-07 09:50 54.96088 24.07407 253 ft 6 kts 314°
2026-05-07 09:51 54.96135 24.07393 250 ft 12 kts 357°
2026-05-07 09:51 54.96257 24.07371 244 ft 21 kts 356°
2026-05-07 09:51 54.96335 24.07519 244 ft 22 kts 90°
2026-05-07 09:51 54.96352 24.07813 246 ft 28 kts 83°
2026-05-07 09:52 54.96378 24.08196 251 ft 35 kts 81°
2026-05-07 09:52 54.96401 24.08628 252 ft 38 kts 85°
2026-05-07 09:52 54.96429 24.09124 246 ft 44 kts 87°
2026-05-07 09:52 54.96451 24.09664 247 ft 45 kts 83°
2026-05-07 09:53 54.96480 24.10172 254 ft 38 kts 84°
2026-05-07 09:53 54.96507 24.10615 252 ft 35 kts 82°
2026-05-07 09:53 54.96547 24.10938 247 ft 14 kts 129°
2026-05-07 09:53 54.96515 24.10920 246 ft 5 kts 250°
2026-05-07 09:54 54.96496 24.10571 252 ft 78 kts 265°
2026-05-07 09:54 54.96418 24.09026 488 ft 157 kts 267°
2026-05-07 09:54 54.96309 24.07017 1472 ft 178 kts 267°
2026-05-07 09:54 54.96200 24.04824 2758 ft 178 kts 264°
2026-05-07 09:55 54.96102 24.02809 4552 ft 160 kts 264°
2026-05-07 09:55 54.96004 24.00803 5834 ft 182 kts 263°
2026-05-07 09:55 54.95882 23.98385 6725 ft 215 kts 263°
2026-05-07 09:55 54.95744 23.95682 7838 ft 232 kts 263°
2026-05-07 09:56 54.95601 23.92847 9045 ft 238 kts 262°
2026-05-07 09:56 54.95457 23.89944 10353 ft 242 kts 262°
2026-05-07 09:56 54.95311 23.87012 11685 ft 245 kts 261°
2026-05-07 09:56 54.95162 23.84044 13139 ft 247 kts 261°
2026-05-07 09:57 54.94974 23.81050 14592 ft 251 kts 257°
2026-05-07 09:57 54.94444 23.78140 15916 ft 254 kts 242°
2026-05-07 09:57 54.93406 23.75657 17325 ft 257 kts 225°
2026-05-07 09:57 54.91996 23.73557 18269 ft 279 kts 219°
2026-05-07 09:58 54.90372 23.71436 18756 ft 304 kts 217°
2026-05-07 09:58 54.88593 23.69275 19386 ft 317 kts 216°
2026-05-07 09:58 54.86737 23.67139 20178 ft 323 kts 215°
2026-05-07 09:58 54.84833 23.65014 21009 ft 328 kts 214°
2026-05-07 09:59 54.82897 23.62883 21848 ft 332 kts 214°
2026-05-07 09:59 54.80932 23.60729 22678 ft 336 kts 215°
2026-05-07 09:59 54.78944 23.58547 23488 ft 340 kts 215°
2026-05-07 09:59 54.76963 23.56367 24157 ft 343 kts 215°
2026-05-07 10:00 54.74945 23.54143 24852 ft 345 kts 215°
2026-05-07 10:00 54.72910 23.51899 25496 ft 348 kts 215°
2026-05-07 10:00 54.70865 23.49642 26132 ft 350 kts 215°
2026-05-07 10:00 54.68804 23.47371 26735 ft 352 kts 215°
2026-05-07 10:01 54.66726 23.45083 27330 ft 355 kts 215°
2026-05-07 10:01 54.64634 23.42782 27904 ft 357 kts 215°
2026-05-07 10:01 54.62532 23.40473 28390 ft 360 kts 215°
2026-05-07 10:01 54.60413 23.38148 28918 ft 360 kts 215°
2026-05-07 10:02 54.58298 23.35833 29569 ft 358 kts 215°
2026-05-07 10:02 54.56200 23.33540 30216 ft 355 kts 215°
2026-05-07 10:02 54.54142 23.31293 30780 ft 353 kts 215°
2026-05-07 10:02 54.52075 23.29039 31340 ft 351 kts 215°
2026-05-07 10:03 54.50019 23.26798 31938 ft 349 kts 215°
2026-05-07 10:03 54.47975 23.24573 32536 ft 347 kts 215°
2026-05-07 10:03 54.45943 23.22364 33153 ft 344 kts 215°
2026-05-07 10:03 54.43926 23.20173 33786 ft 342 kts 215°
2026-05-07 10:04 54.41917 23.17994 34344 ft 341 kts 215°
2026-05-07 10:04 54.39908 23.15815 34772 ft 343 kts 215°
2026-05-07 10:04 54.37882 23.13621 35164 ft 345 kts 214°
2026-05-07 10:04 54.35848 23.11420 35571 ft 347 kts 214°
2026-05-07 10:05 54.33799 23.09206 35961 ft 348 kts 214°
2026-05-07 10:05 54.31723 23.07021 36276 ft 353 kts 211°
2026-05-07 10:05 54.29501 23.05184 36618 ft 356 kts 206°
2026-05-07 10:05 54.27212 23.03517 36983 ft 358 kts 205°
2026-05-07 10:06 54.24901 23.01922 37341 ft 359 kts 204°
2026-05-07 10:06 54.22602 23.00381 37685 ft 360 kts 204°
2026-05-07 10:06 54.20263 22.98834 37872 ft 360 kts 204°
2026-05-07 10:07 54.15566 22.95735 37873 ft 362 kts 204°
2026-05-07 10:07 54.10878 22.92628 37875 ft 361 kts 204°
2026-05-07 10:08 54.06365 22.88917 37874 ft 360 kts 214°
2026-05-07 10:08 54.02279 22.84007 37874 ft 360 kts 218°
2026-05-07 10:09 53.98306 22.78827 37879 ft 360 kts 219°
2026-05-07 10:09 53.94349 22.73620 37880 ft 360 kts 219°
2026-05-07 10:10 53.90405 22.68477 37877 ft 360 kts 219°
2026-05-07 10:10 53.86428 22.63328 37879 ft 360 kts 219°
2026-05-07 10:11 53.82448 22.58197 37877 ft 360 kts 219°
2026-05-07 10:11 53.78463 22.53072 37876 ft 360 kts 219°
2026-05-07 10:12 53.74463 22.47938 37875 ft 360 kts 219°
2026-05-07 10:12 53.70473 22.42830 37880 ft 360 kts 219°
2026-05-07 10:13 53.66483 22.37734 37868 ft 360 kts 219°
2026-05-07 10:13 53.62489 22.32644 37892 ft 359 kts 219°
2026-05-07 10:14 53.59169 22.28424 37892 ft 359 kts 219°
2026-05-07 10:14 53.54528 22.22538 37893 ft 360 kts 218°
2026-05-07 10:15 53.50530 22.17481 37893 ft 360 kts 218°
2026-05-07 10:15 53.47202 22.13281 37895 ft 360 kts 218°
2026-05-07 10:16 53.43195 22.08235 37894 ft 360 kts 218°
2026-05-07 10:16 53.39178 22.03188 37898 ft 361 kts 218°
2026-05-07 10:17 53.35162 21.98155 37898 ft 361 kts 218°
2026-05-07 10:17 53.31135 21.93121 37900 ft 361 kts 218°
2026-05-07 10:18 53.27110 21.88100 37899 ft 361 kts 218°
2026-05-07 10:18 53.23104 21.83116 37894 ft 361 kts 218°
2026-05-07 10:19 53.19062 21.78098 37901 ft 363 kts 218°
2026-05-07 10:19 53.15007 21.73077 37903 ft 363 kts 218°
2026-05-07 10:20 53.10956 21.68073 37906 ft 363 kts 218°
2026-05-07 10:20 53.06899 21.63073 37911 ft 363 kts 218°
2026-05-07 10:21 53.02841 21.58084 37898 ft 363 kts 218°
2026-05-07 10:21 52.98807 21.53135 37908 ft 363 kts 218°
2026-05-07 10:22 52.94741 21.48160 37914 ft 363 kts 218°
2026-05-07 10:22 52.90677 21.43199 37914 ft 363 kts 218°
2026-05-07 10:23 52.86610 21.38246 37919 ft 363 kts 218°
2026-05-07 10:23 52.82540 21.33301 37917 ft 363 kts 218°
2026-05-07 10:24 52.78470 21.28368 37914 ft 362 kts 218°
2026-05-07 10:24 52.74401 21.23448 37916 ft 362 kts 218°
2026-05-07 10:25 52.70340 21.18548 37916 ft 362 kts 218°
2026-05-07 10:25 52.66296 21.13682 37915 ft 362 kts 218°
2026-05-07 10:26 52.62230 21.08800 37922 ft 362 kts 218°
2026-05-07 10:26 52.58162 21.03927 37927 ft 361 kts 218°
2026-05-07 10:27 52.54095 20.99067 37933 ft 361 kts 217°
2026-05-07 10:27 52.50030 20.94221 37933 ft 360 kts 217°
2026-05-07 10:28 52.45966 20.89389 37936 ft 361 kts 217°
2026-05-07 10:28 52.41901 20.84567 37938 ft 361 kts 217°
2026-05-07 10:29 52.37864 20.79788 37932 ft 360 kts 217°
2026-05-07 10:29 52.33813 20.75005 37937 ft 359 kts 217°
2026-05-07 10:30 52.27753 20.67815 37933 ft 359 kts 220°
2026-05-07 10:30 52.24289 20.61999 37926 ft 358 kts 231°
2026-05-07 10:31 52.21264 20.55545 37927 ft 358 kts 233°
2026-05-07 10:31 52.18325 20.48977 37926 ft 358 kts 233°
2026-05-07 10:32 52.15474 20.42330 37931 ft 358 kts 239°
2026-05-07 10:32 52.13436 20.34906 37928 ft 360 kts 247°
2026-05-07 10:33 52.11738 20.27288 37934 ft 361 kts 248°
2026-05-07 10:33 52.10088 20.19581 37939 ft 361 kts 249°
2026-05-07 10:34 52.08426 20.11878 37937 ft 360 kts 248°
2026-05-07 10:34 52.06747 20.04202 37938 ft 360 kts 248°
2026-05-07 10:35 52.05052 19.96512 37947 ft 361 kts 248°
2026-05-07 10:35 52.03372 19.88840 37938 ft 363 kts 248°
2026-05-07 10:36 52.01699 19.81108 37938 ft 363 kts 248°
2026-05-07 10:36 52.00024 19.73376 37941 ft 363 kts 248°
2026-05-07 10:37 51.98342 19.65654 37942 ft 363 kts 248°
2026-05-07 10:37 51.96655 19.57947 37941 ft 363 kts 248°
2026-05-07 10:38 51.94962 19.50235 37939 ft 363 kts 248°
2026-05-07 10:38 51.93275 19.42584 37941 ft 363 kts 248°
2026-05-07 10:39 51.91573 19.34888 37941 ft 362 kts 248°
2026-05-07 10:39 51.89867 19.27204 37936 ft 362 kts 248°
2026-05-07 10:40 51.88155 19.19522 37942 ft 362 kts 248°
2026-05-07 10:40 51.86440 19.11839 37944 ft 363 kts 248°
2026-05-07 10:41 51.84763 19.04200 37945 ft 363 kts 248°
2026-05-07 10:41 51.83081 18.96497 37944 ft 363 kts 248°
2026-05-07 10:42 51.81393 18.88802 37942 ft 362 kts 248°
2026-05-07 10:42 51.79701 18.81125 37942 ft 362 kts 248°
2026-05-07 10:43 51.78014 18.73497 37959 ft 363 kts 248°
2026-05-07 10:43 51.76304 18.65797 37950 ft 364 kts 248°
2026-05-07 10:44 51.74591 18.58110 37948 ft 364 kts 248°
2026-05-07 10:44 51.72872 18.50425 37954 ft 364 kts 248°
2026-05-07 10:45 51.71144 18.42729 37954 ft 364 kts 247°
2026-05-07 10:45 51.69415 18.35054 37956 ft 364 kts 247°
2026-05-07 10:46 51.67691 18.27430 37954 ft 364 kts 247°
2026-05-07 10:46 51.65951 18.19766 37953 ft 364 kts 247°
2026-05-07 10:47 51.64208 18.12112 37954 ft 364 kts 247°
2026-05-07 10:47 51.62459 18.04463 37960 ft 364 kts 247°
2026-05-07 10:48 51.60706 17.96822 37953 ft 363 kts 247°
2026-05-07 10:48 51.58963 17.89250 37955 ft 363 kts 247°
2026-05-07 10:49 51.57203 17.81632 37953 ft 363 kts 247°
2026-05-07 10:49 51.55442 17.74030 37959 ft 363 kts 246°
2026-05-07 10:50 51.53673 17.66421 37957 ft 363 kts 246°
2026-05-07 10:50 51.51900 17.58826 37956 ft 363 kts 246°
2026-05-07 10:51 51.50121 17.51226 37956 ft 364 kts 246°
2026-05-07 10:51 51.48332 17.43616 37959 ft 364 kts 246°
2026-05-07 10:52 51.46538 17.36009 37954 ft 364 kts 246°
2026-05-07 10:52 51.44739 17.28411 37953 ft 364 kts 246°
2026-05-07 10:53 51.42944 17.20859 37954 ft 365 kts 246°
2026-05-07 10:53 51.41135 17.13272 37961 ft 364 kts 246°
2026-05-07 10:54 51.39321 17.05690 37965 ft 365 kts 246°
2026-05-07 10:54 51.37500 16.98108 37959 ft 365 kts 246°
2026-05-07 10:55 51.35667 16.90504 37964 ft 367 kts 245°
2026-05-07 10:55 51.33822 16.82877 37963 ft 368 kts 245°
2026-05-07 10:56 51.31967 16.75229 37963 ft 368 kts 245°
2026-05-07 10:56 51.30117 16.67630 37964 ft 369 kts 245°
2026-05-07 10:57 51.28251 16.59990 37965 ft 369 kts 245°
2026-05-07 10:57 51.26376 16.52342 37968 ft 369 kts 245°
2026-05-07 10:58 51.24500 16.44719 37965 ft 369 kts 245°
2026-05-07 10:58 51.22616 16.37088 37981 ft 370 kts 245°
2026-05-07 10:59 51.20731 16.29480 37962 ft 371 kts 245°
2026-05-07 10:59 51.18826 16.21819 37962 ft 371 kts 245°
2026-05-07 11:00 51.17238 16.15450 37966 ft 372 kts 245°
2026-05-07 11:00 51.15323 16.07796 37958 ft 372 kts 245°
2026-05-07 11:01 51.13401 16.00139 37957 ft 372 kts 245°
2026-05-07 11:01 51.11473 15.92484 37965 ft 372 kts 245°
2026-05-07 11:02 51.09551 15.84880 37954 ft 372 kts 245°
2026-05-07 11:02 51.07599 15.77187 37969 ft 373 kts 245°
2026-05-07 11:03 51.05659 15.69565 37962 ft 375 kts 245°
2026-05-07 11:03 51.03699 15.61889 37944 ft 375 kts 244°
2026-05-07 11:04 51.01733 15.54213 37942 ft 375 kts 244°
2026-05-07 11:04 50.99760 15.46545 37946 ft 374 kts 244°
2026-05-07 11:05 50.97789 15.38910 37937 ft 374 kts 244°
2026-05-07 11:05 50.95702 15.31380 37932 ft 371 kts 238°
2026-05-07 11:06 50.92661 15.24861 37942 ft 367 kts 227°
2026-05-07 11:06 50.89233 15.18907 37929 ft 369 kts 225°
2026-05-07 11:07 50.85679 15.12985 37930 ft 371 kts 224°
2026-05-07 11:07 50.82120 15.07054 37934 ft 372 kts 224°
2026-05-07 11:08 50.78565 15.01103 37922 ft 372 kts 224°
2026-05-07 11:08 50.75013 14.95151 37916 ft 372 kts 224°
2026-05-07 11:09 50.71455 14.89200 37918 ft 372 kts 224°
2026-05-07 11:09 50.67924 14.83218 37917 ft 373 kts 228°
2026-05-07 11:10 50.65180 14.76243 37913 ft 378 kts 242°
2026-05-07 11:10 50.63202 14.68539 37918 ft 380 kts 246°
2026-05-07 11:11 50.61386 14.60752 37923 ft 382 kts 247°
2026-05-07 11:11 50.59557 14.52882 37913 ft 383 kts 246°
2026-05-07 11:12 50.57698 14.45021 37912 ft 384 kts 246°
2026-05-07 11:12 50.55816 14.37154 37913 ft 384 kts 246°
2026-05-07 11:13 50.53940 14.29351 37914 ft 384 kts 246°
2026-05-07 11:13 50.52046 14.21501 37918 ft 384 kts 246°
2026-05-07 11:14 50.50151 14.13671 37921 ft 384 kts 246°
2026-05-07 11:14 50.48247 14.05829 37924 ft 384 kts 246°
2026-05-07 11:15 50.46349 13.98043 37925 ft 384 kts 246°
2026-05-07 11:15 50.44433 13.90209 37920 ft 385 kts 246°
2026-05-07 11:16 50.42510 13.82373 37919 ft 385 kts 246°
2026-05-07 11:16 50.40579 13.74535 37919 ft 385 kts 246°
2026-05-07 11:17 50.38645 13.66709 37918 ft 385 kts 246°
2026-05-07 11:17 50.36705 13.58889 37918 ft 385 kts 246°
2026-05-07 11:18 50.34772 13.51125 37918 ft 385 kts 246°
2026-05-07 11:18 50.32823 13.43324 37914 ft 385 kts 246°
2026-05-07 11:19 50.30868 13.35525 37917 ft 385 kts 246°
2026-05-07 11:19 50.28909 13.27736 37920 ft 385 kts 246°
2026-05-07 11:20 50.26809 13.20055 37918 ft 383 kts 240°
2026-05-07 11:20 50.24186 13.12807 37922 ft 383 kts 237°
2026-05-07 11:21 50.21416 13.05694 37939 ft 382 kts 236°
2026-05-07 11:21 50.18623 12.98621 37938 ft 383 kts 236°
2026-05-07 11:22 50.15854 12.91588 37952 ft 383 kts 237°
2026-05-07 11:22 50.13069 12.84501 37939 ft 384 kts 237°
2026-05-07 11:23 50.10277 12.77404 37933 ft 384 kts 237°
2026-05-07 11:23 50.07479 12.70312 37937 ft 384 kts 237°
2026-05-07 11:24 50.04676 12.63228 37940 ft 384 kts 237°
2026-05-07 11:24 50.01872 12.56162 37941 ft 384 kts 237°
2026-05-07 11:25 49.99061 12.49099 37944 ft 384 kts 237°
2026-05-07 11:25 49.96261 12.42080 37938 ft 384 kts 237°
2026-05-07 11:26 49.93437 12.35021 37962 ft 385 kts 237°
2026-05-07 11:26 49.90605 12.27960 37950 ft 385 kts 237°
2026-05-07 11:27 49.87765 12.20900 37948 ft 385 kts 237°
2026-05-07 11:27 49.84921 12.13848 37962 ft 385 kts 237°
2026-05-07 11:28 49.82094 12.06855 37958 ft 385 kts 237°
2026-05-07 11:28 49.79242 11.99822 37958 ft 385 kts 237°
2026-05-07 11:29 49.76388 11.92801 37808 ft 386 kts 237°
2026-05-07 11:29 49.74959 11.89294 37549 ft 385 kts 237°
2026-05-07 11:29 49.73533 11.85798 37297 ft 384 kts 237°
2026-05-07 11:30 49.72107 11.82305 37032 ft 384 kts 237°
2026-05-07 11:30 49.70678 11.78810 36789 ft 384 kts 237°
2026-05-07 11:30 49.69249 11.75320 36539 ft 385 kts 237°
2026-05-07 11:30 49.67817 11.71829 36287 ft 385 kts 237°
2026-05-07 11:31 49.66399 11.68376 36044 ft 385 kts 237°
2026-05-07 11:31 49.64963 11.64882 35800 ft 386 kts 237°
2026-05-07 11:31 49.63525 11.61389 35559 ft 386 kts 237°
2026-05-07 11:31 49.62083 11.57890 35318 ft 386 kts 237°
2026-05-07 11:32 49.59200 11.50910 34666 ft 386 kts 237°
2026-05-07 11:32 49.57757 11.47424 34150 ft 385 kts 237°
2026-05-07 11:32 49.56312 11.43938 33508 ft 385 kts 237°
2026-05-07 11:33 49.54867 11.40456 32933 ft 386 kts 238°
2026-05-07 11:33 49.53417 11.36966 32345 ft 387 kts 238°
2026-05-07 11:33 49.51959 11.33462 31745 ft 389 kts 238°
2026-05-07 11:33 49.50517 11.30000 31156 ft 389 kts 238°
2026-05-07 11:34 49.49053 11.26491 30520 ft 391 kts 239°
2026-05-07 11:34 49.47579 11.22959 29870 ft 393 kts 239°
2026-05-07 11:34 49.46097 11.19415 29119 ft 395 kts 239°
2026-05-07 11:34 49.44607 11.15856 28424 ft 397 kts 239°
2026-05-07 11:35 49.43113 11.12292 27789 ft 395 kts 239°
2026-05-07 11:35 49.41621 11.08741 27317 ft 393 kts 239°
2026-05-07 11:35 49.40144 11.05230 26800 ft 390 kts 239°
2026-05-07 11:35 49.38677 11.01747 26272 ft 386 kts 239°
2026-05-07 11:36 49.37223 10.98301 25757 ft 383 kts 239°
2026-05-07 11:36 49.35779 10.94880 25249 ft 380 kts 239°
2026-05-07 11:36 49.34364 10.91533 24755 ft 377 kts 239°
2026-05-07 11:36 49.32943 10.88176 24249 ft 374 kts 239°
2026-05-07 11:37 49.31532 10.84846 23740 ft 371 kts 239°
2026-05-07 11:37 49.30132 10.81546 23179 ft 367 kts 239°
2026-05-07 11:37 49.28743 10.78276 22671 ft 365 kts 239°
2026-05-07 11:37 49.27364 10.75032 22168 ft 362 kts 239°
2026-05-07 11:38 49.25996 10.71821 21670 ft 359 kts 239°
2026-05-07 11:38 49.24634 10.68626 21151 ft 357 kts 239°
2026-05-07 11:38 49.23282 10.65457 20670 ft 354 kts 239°
2026-05-07 11:38 49.21936 10.62307 20176 ft 352 kts 239°
2026-05-07 11:39 49.20602 10.59189 19704 ft 349 kts 239°
2026-05-07 11:39 49.19275 10.56092 19214 ft 346 kts 239°
2026-05-07 11:39 49.17962 10.53031 18712 ft 344 kts 239°
2026-05-07 11:39 49.16655 10.49986 18214 ft 341 kts 238°
2026-05-07 11:40 49.15360 10.46975 17680 ft 338 kts 239°
2026-05-07 11:40 49.14072 10.43981 17196 ft 336 kts 239°
2026-05-07 11:40 49.12792 10.41013 16715 ft 333 kts 239°
2026-05-07 11:40 49.11524 10.38071 16216 ft 331 kts 239°
2026-05-07 11:41 49.10261 10.35145 15754 ft 329 kts 239°
2026-05-07 11:41 49.09003 10.32235 15279 ft 327 kts 239°
2026-05-07 11:41 49.07757 10.29352 14797 ft 325 kts 239°
2026-05-07 11:41 49.06529 10.26518 14314 ft 322 kts 238°
2026-05-07 11:42 49.05303 10.23690 13854 ft 317 kts 238°
2026-05-07 11:42 49.04094 10.20904 13342 ft 314 kts 238°
2026-05-07 11:42 49.02891 10.18136 12877 ft 312 kts 238°
2026-05-07 11:42 49.01698 10.15393 12424 ft 309 kts 238°
2026-05-07 11:43 49.00513 10.12669 11943 ft 307 kts 238°
2026-05-07 11:43 48.99337 10.09971 11492 ft 305 kts 238°
2026-05-07 11:43 48.98166 10.07286 11036 ft 303 kts 238°
2026-05-07 11:43 48.97003 10.04625 10568 ft 301 kts 238°
2026-05-07 11:44 48.95848 10.01983 10152 ft 298 kts 238°
2026-05-07 11:44 48.94733 9.99440 10049 ft 278 kts 238°
2026-05-07 11:44 48.93676 9.97034 9815 ft 273 kts 238°
2026-05-07 11:44 48.92635 9.94657 9357 ft 272 kts 238°
2026-05-07 11:45 48.91588 9.92267 8969 ft 270 kts 238°
2026-05-07 11:45 48.90559 9.89921 8591 ft 269 kts 238°
2026-05-07 11:45 48.89510 9.87532 8187 ft 267 kts 238°
2026-05-07 11:45 48.88481 9.85191 7801 ft 265 kts 238°
2026-05-07 11:46 48.87805 9.83653 7537 ft 264 kts 238°
2026-05-07 11:46 48.86784 9.81336 7165 ft 263 kts 238°
2026-05-07 11:46 48.85445 9.78299 6653 ft 260 kts 238°
2026-05-07 11:46 48.84789 9.76812 6404 ft 260 kts 238°
2026-05-07 11:47 48.83760 9.74483 5996 ft 258 kts 238°
2026-05-07 11:47 48.82773 9.72252 5613 ft 258 kts 238°
2026-05-07 11:47 48.81778 9.70003 5231 ft 256 kts 238°
2026-05-07 11:47 48.80791 9.67763 5027 ft 254 kts 238°
2026-05-07 11:48 48.79806 9.65538 4997 ft 254 kts 238°
2026-05-07 11:48 48.78818 9.63313 5007 ft 255 kts 238°
2026-05-07 11:48 48.77837 9.61108 4999 ft 243 kts 237°
2026-05-07 11:48 48.76922 9.59062 5011 ft 228 kts 237°
2026-05-07 11:49 48.76043 9.57088 5001 ft 226 kts 238°
2026-05-07 11:49 48.75293 9.55009 5003 ft 224 kts 248°
2026-05-07 11:49 48.74787 9.52786 4990 ft 223 kts 255°
2026-05-07 11:49 48.74357 9.50522 4835 ft 221 kts 255°
2026-05-07 11:50 48.73938 9.48349 4529 ft 207 kts 255°
2026-05-07 11:50 48.73553 9.46352 4217 ft 188 kts 255°
2026-05-07 11:50 48.73209 9.44534 3952 ft 171 kts 255°
2026-05-07 11:50 48.72908 9.42955 3729 ft 142 kts 256°
2026-05-07 11:51 48.72653 9.41609 3543 ft 128 kts 256°
2026-05-07 11:51 48.72415 9.40339 3362 ft 124 kts 256°
2026-05-07 11:51 48.72180 9.39086 3203 ft 123 kts 256°
2026-05-07 11:51 48.71948 9.37846 3065 ft 122 kts 257°
2026-05-07 11:52 48.71719 9.36611 2871 ft 121 kts 257°
2026-05-07 11:52 48.71470 9.35384 2810 ft 125 kts 255°
2026-05-07 11:52 48.71222 9.34142 2668 ft 123 kts 257°
2026-05-07 11:52 48.70998 9.32905 2441 ft 122 kts 257°
2026-05-07 11:53 48.70763 9.31672 2187 ft 121 kts 256°
2026-05-07 11:53 48.70522 9.30441 2017 ft 123 kts 257°
2026-05-07 11:53 48.70285 9.29250 1726 ft 126 kts 256°
2026-05-07 11:53 48.70063 9.27934 1639 ft 126 kts 260°
2026-05-07 11:54 48.69820 9.26636 1479 ft 123 kts 258°
2026-05-07 11:54 48.69587 9.25383 1397 ft 127 kts 259°
2026-05-07 11:54 48.69356 9.24150 1259 ft 115 kts 258°
2026-05-07 11:54 48.69170 9.23104 1224 ft 81 kts 255°
2026-05-07 11:55 48.69064 9.22544 1232 ft 36 kts 255°
2026-05-07 11:55 48.69005 9.22256 1250 ft 26 kts 252°
2026-05-07 11:55 48.68949 9.21931 1255 ft 37 kts 259°
2026-05-07 11:55 48.68983 9.21511 1266 ft 35 kts 283°
2026-05-07 11:56 48.69029 9.21222 1276 ft 27 kts 284°
2026-05-07 11:56 48.69020 9.21001 1280 ft 18 kts 248°
2026-05-07 11:56 48.68994 9.20850 1284 ft 13 kts 253°
2026-05-07 11:56 48.68969 9.20724 1287 ft 12 kts 254°
2026-05-07 11:57 48.68971 9.20620 1290 ft 9 kts 300°
2026-05-07 11:57 48.69018 9.20538 1293 ft 13 kts 312°
2026-05-07 11:57 48.69062 9.20431 1299 ft 8 kts 267°
2026-05-07 11:57 48.69046 9.20332 1303 ft 10 kts 252°
2026-05-07 11:58 48.69024 9.20255 1305 ft 5 kts 227°
2026-05-07 11:58 48.68982 9.20237 1304 ft 6 kts 168°
2026-05-07 11:58 48.68950 9.20253 1302 ft 0 kts 164°